Showing default

DIADEME 2, 2680

Orbit data source: Space-Track

DIADEME 2, 2680 is a payload satellite owned by CNES (FR) in LEO that was launched on Wed, 15 Feb 1967 UTC via a DIAMANT A launch vehicle from the Hamma Guira Space Track Range (HGSTR). Payloads include a variety of satellites, spacecraft, and rockets equipped with specific instruments for various scientific and technological missions. These include communications satellites like Starlink; space stations such as the ISS; scientific satellites like the Hubble; Earth observation satellites from companies like Planet Labs, Umbra, and HawkEye 360; GPS; miniature CubeSats for education and research; and military/defense satellites.

Loading next visibility...
DIADEME 2 details
Identifier
2680, 1967-014A
Orbit
LEO
Last TLE update1 day ago
Origin
Flag of FRCNES (FR)
ManufacturerCNES
MissionCivil Geodetic
Bus & MotorD-1, Unknown motor
Mass23 kg wet, 23 kg dry
Launch date (UTC)
1967-02-15 (58 years ago)
Launch vehicle
DIAMANT A
Launch site
Hamma Guira Space Track Range (HGSTR)
Object type
Payload
Rocket body
Debris
Shape & HBRCyl + 4 Pan, 1.5 m
Radar Cross Section0.455 m², Medium (>0.1 m² and < 1m²)

Expand to show TLE details & history

TLE from 1 day ago
0 DIADEME 2
1 02680U 67014A   24355.30009629  .00000816  00000-0  35320-3 0  9993
2 02680  39.4418 357.4560 0708001 181.9226 177.8722 13.40528363802933
Epoch: 2024-12-20T07:12Z
Definitive object data (Epoch: 2024-12-20T07:12:08.319Z)
Latitude-0.00001°
Longitude160.05374°
Altitude1,636.308 km
Speed6.801 km/s
True Right ascension23h 49m 49s
True Declination0° 00' 00"
Sunlit
Object was in daylight at TLE epoch
Visualization TLE readout
Latitude-39.4301°
Longitude58.42932°
Altitude958.221 km
Speed7.452 km/s
Apparent Right ascension20h 13m 12s
Apparent Declination-53° 44' 18"
Sunlit
Object is in daylight
Visualization observer readout
Local Sidereal Time12:07:33
Azimuth129.804° SE
Elevation-48.924°
Doppler factor1
Orbital elements
Apogee altitude1,639.793 km
Perigee altitude579.52 km
Semi-major axis7,487.793 km
Eccentricity0.0708001
Inclination39.4418°
RAAN357.456°
Arg. of periapsis181.9226°
True anomaly178.14888°
Mean anomaly177.8722°
Eccentric anomaly178.01286°
Mean motion3.34975 °/min
BSTAR0.0003532
Orbital period107.47 mins
Loading maneuver chart data...
Loading historical data...
Loading historical data...
Loading historical data...
Loading historical data...
Loading historical data...
Loading historical data...
Loading historical data...

DIADEME 2 Visibility forecast

Observer location: undefined°, undefined

Span
Click to sort rows by Start time (UTC) header in descending order
Start Az.
Max El. time (UTC)
Max El. Az.
Max El.
End time (UTC)
End Az.
15 mins2024-12-22 02:15:38.598Z202.541° SW2024-12-22 02:22:38.598Z151.822° SSE29.834°2024-12-22 02:30:38.598Z86.123° E
15 mins2024-12-22 04:08:38.598Z241.087° WSW2024-12-22 04:16:38.598Z174.955° S42.93°2024-12-22 04:23:38.598Z82.529° E
14 mins2024-12-22 06:03:38.598Z267.899° W2024-12-22 06:10:38.598Z253.087° W44.658°2024-12-22 06:17:38.598Z92.278° ESE
11 mins2024-12-22 07:58:38.598Z277.267° WNW2024-12-22 08:04:38.598Z208.041° SW41.557°2024-12-22 08:09:38.598Z123.141° SE
6 mins2024-12-22 09:54:38.598Z252.805° W2024-12-22 09:57:38.598Z215.818° SW19.327°2024-12-22 10:00:38.598Z177.803° S
|